Powrót do katalogu

TEVEL2-2

AktywnyKrótkofalarstwoSSO
NORAD 63219·PAYLOAD·🇮🇱 Israel

Wystrzelony Mar 15, 2025 z Vandenberg Space Force Base

Loading…

Następne Przeloty (najbliższe 24 godziny)

TLE

ŚwieżeSource: AMSAT

Epoka: Sep 13, 2026, 16:33 UTC

1 63219U 25052K   26256.68989635  .00014209  00000-0  39941-3 0  9995
2 63219  97.3739 152.7722 0003715 133.6739 226.4814 15.36614752 83676

Śledź TEVEL2-2 w czasie rzeczywistym z AllMySat

Download on the App Store